Torna al catalogo

FLOCK 4Q 16

AttivoScienzaSSO
NORAD 58271·PAYLOAD·🇺🇸 United States

Lanciato Nov 11, 2023 da Vandenberg Space Force Base

Loading…

Prossimi Passaggi (prossime 24 ore)

TLE

AggiornatoSource: CelesTrak SupGP

Epoca: Sep 14, 2026, 06:45 UTC

1 58271C 23174R   26257.28134259  .00028512  00000+0  45898-3 0  2577
2 58271  97.3773 347.6546 0006005 196.1896 268.2293 15.52945266    15

Traccia FLOCK 4Q 16 in tempo reale con AllMySat

Download on the App Store